Muncie, IN

12:52 AM EST on November 19, 2019 (GMT -0500)
Delaware County-Johnson

Weather History for KMIE - October, 2019

Change the Weather History Date:

Sunday, October 20, 2019

  Actual Average Record
Temperature  
Mean Temperature 63 °F 52 °F  
Max Temperature 75 °F 63 °F 80 °F (1963)
Min Temperature 51 °F 42 °F 25 °F (1991)
Degree Days  
Heating Degree Days 2 13  
Month to date heating degree days 134 204  
Since 1 July heating degree days 137 305  
Cooling Degree Days 0 0  
Month to date cooling degree days 47 13  
Year to date cooling degree days 1355 952  
Growing Degree Days 13 (Base 50)    
Moisture  
Dew Point 46 °F    
Average Humidity 59    
Maximum Humidity 83    
Minimum Humidity 35    
Precipitation  
Precipitation T in 0.09 in 1.52 in (2016)
Month to date precipitation 0.30 1.93  
Year to date precipitation 36.24 32.80  
Sea Level Pressure  
Sea Level Pressure 29.85 in    
Wind  
Wind Speed 3 mph ()    
Max Wind Speed 9 mph    
Max Gust Speed 13 mph    
Visibility 10.0 miles    
Events      
T = Trace of Precipitation, MM = Missing Value Source: Averaged Metar Reports

Daily Weather History Graph

Daily Weather History Graph

Search for Another Location

Airport or City:

Astronomy

Oct. 20, 2019 Rise Set
Actual Time 7:57 AM EDT 6:54 PM EDT
Civil Twilight 7:29 AM EDT 7:22 PM EDT
Nautical Twilight 6:58 AM EDT 7:53 PM EDT
Astronomical Twilight 6:26 AM EDT 8:25 PM EDT
Moon No Moon Rise 2:25 PM EDT (10/20)
Length of Visible Light 11h 52m
Length of Day
10h 57m
Waning Gibbous, 59% of the Moon is Illuminated
Oct 20
Waning Gibbous
Oct 21
Last Quarter
Oct 27
New
Nov 4
First Quarter
Nov 12
Full

Hourly Weather History & Observations

Time (EDT) Temp. Dew Point Humidity Pressure Visibility Wind Dir Wind Speed Gust Speed Precip Events Conditions
12:53 AM 57.0 °F 43.0 °F 59% 29.78 in 10.0 mi South 5.8 mph - N/A   Partly Cloudy
1:53 AM 57.0 °F 44.1 °F 62% 29.77 in 10.0 mi South 5.8 mph - N/A   Partly Cloudy
2:53 AM 57.0 °F 44.1 °F 62% 29.77 in 10.0 mi SSW 3.5 mph - N/A   Partly Cloudy
3:53 AM 57.0 °F 45.0 °F 64% 29.77 in 10.0 mi SSW 3.5 mph - N/A   Partly Cloudy
4:53 AM 55.9 °F 46.9 °F 72% 29.78 in 10.0 mi SSW 4.6 mph - 0.00 in   Clear
5:53 AM 53.1 °F 46.0 °F 77% 29.80 in 10.0 mi Calm Calm - N/A   Clear
6:53 AM 54.0 °F 46.9 °F 77% 29.81 in 10.0 mi Calm Calm - N/A   Clear
7:53 AM 53.1 °F 48.0 °F 83% 29.83 in 10.0 mi South 3.5 mph - N/A   Overcast
8:53 AM 55.9 °F 48.9 °F 77% 29.85 in 10.0 mi South 3.5 mph - N/A   Partly Cloudy
9:53 AM 61.0 °F 48.9 °F 64% 29.87 in 10.0 mi West 4.6 mph - N/A   Mostly Cloudy
10:53 AM 63.0 °F 48.0 °F 58% 29.88 in 10.0 mi WNW 5.8 mph - N/A   Scattered Clouds
11:53 AM 66.9 °F 48.0 °F 51% 29.89 in 10.0 mi WSW 3.5 mph - N/A   Mostly Cloudy
12:53 PM 70.0 °F 43.0 °F 38% 29.89 in 10.0 mi NW 5.8 mph - N/A   Clear
1:53 PM 71.1 °F 43.0 °F 36% 29.88 in 10.0 mi Calm Calm - N/A   Partly Cloudy
2:53 PM 72.0 °F 44.1 °F 37% 29.86 in 10.0 mi Calm Calm - N/A   Mostly Cloudy
3:53 PM 73.0 °F 45.0 °F 37% 29.86 in 10.0 mi Calm Calm - N/A   Clear
4:53 PM 73.9 °F 45.0 °F 35% 29.86 in 10.0 mi North - - N/A   Clear
5:53 PM 73.9 °F 45.0 °F 35% 29.86 in 10.0 mi NE 3.5 mph - N/A   Clear
6:53 PM 66.0 °F 46.0 °F 48% 29.88 in 10.0 mi North 3.5 mph - N/A   Clear
7:53 PM 61.0 °F 46.9 °F 60% 29.90 in 10.0 mi Calm Calm - N/A   Clear
8:53 PM 60.1 °F 48.0 °F 64% 29.91 in 9.0 mi Calm Calm - N/A   Overcast
9:53 PM 57.0 °F 48.0 °F 72% 29.91 in 10.0 mi Calm Calm - N/A   Mostly Cloudy
10:53 PM 57.0 °F 48.0 °F 72% 29.92 in 10.0 mi NE 3.5 mph - N/A   Overcast
11:53 PM 57.0 °F 48.0 °F 72% 29.91 in 10.0 mi Calm Calm - N/A   Overcast